Time,TemperatureF,DewpointF,PressureIn,WindDirection,WindDirectionDegrees,WindSpeedMPH,WindSpeedGustMPH,Humidity,HourlyPrecipIn,Conditions,Clouds,dailyrainin,SoftwareType,DateUTC
2013-01-25 00:11:00,4.9,0.0,30.54,WSW,256,1.0,-999.0,80,-99.99,,,0.00,weatherlink.com 1.10,2013-01-25 05:11:00,
2013-01-25 00:26:00,5.1,0.0,30.53,WSW,256,2.0,-999.0,80,-99.99,,,0.00,weatherlink.com 1.10,2013-01-25 05:26:00,
2013-01-25 00:41:00,5.2,0.0,30.53,WSW,246,0.0,-999.0,80,-99.99,,,0.00,weatherlink.com 1.10,2013-01-25 05:41:00,
2013-01-25 00:56:00,5.5,1.0,30.53,WSW,238,0.0,-999.0,80,-99.99,,,0.00,weatherlink.com 1.10,2013-01-25 05:56:00,
2013-01-25 01:11:00,6.0,1.0,30.52,WSW,243,2.0,-999.0,80,-99.99,,,0.00,weatherlink.com 1.10,2013-01-25 06:11:00,
2013-01-25 01:26:00,6.3,1.0,30.51,WSW,249,2.0,-999.0,80,-99.99,,,0.00,weatherlink.com 1.10,2013-01-25 06:26:00,
2013-01-25 01:41:00,6.5,2.0,30.51,West,261,3.0,-999.0,80,-99.99,,,0.00,weatherlink.com 1.10,2013-01-25 06:41:00,
2013-01-25 01:56:00,6.9,2.0,30.51,West,259,1.0,-999.0,81,-99.99,,,0.00,weatherlink.com 1.10,2013-01-25 06:56:00,
2013-01-25 02:11:00,7.3,3.0,30.51,WSW,252,0.0,-999.0,81,-99.99,,,0.00,weatherlink.com 1.10,2013-01-25 07:11:00,
2013-01-25 02:26:00,7.6,3.0,30.51,West,259,1.0,-999.0,81,-99.99,,,0.00,weatherlink.com 1.10,2013-01-25 07:26:00,
2013-01-25 02:41:00,7.9,3.0,30.51,West,263,3.0,-999.0,81,-99.99,,,0.00,weatherlink.com 1.10,2013-01-25 07:41:00,
2013-01-25 02:56:00,8.1,3.0,30.52,West,269,1.0,-999.0,81,-99.99,,,0.00,weatherlink.com 1.10,2013-01-25 07:56:00,
2013-01-25 03:11:00,8.3,3.0,30.52,WSW,241,5.0,-999.0,80,-99.99,,,0.00,weatherlink.com 1.10,2013-01-25 08:11:00,
2013-01-25 03:26:00,8.2,3.0,30.51,WSW,244,2.0,-999.0,80,-99.99,,,0.00,weatherlink.com 1.10,2013-01-25 08:26:00,
2013-01-25 03:41:00,8.1,3.0,30.50,SW,236,4.0,-999.0,80,-99.99,,,0.00,weatherlink.com 1.10,2013-01-25 08:41:00,
2013-01-25 03:56:00,8.1,3.0,30.50,West,264,1.0,-999.0,81,-99.99,,,0.00,weatherlink.com 1.10,2013-01-25 08:56:00,
2013-01-25 04:11:00,7.9,3.0,30.49,SW,236,0.0,-999.0,81,-99.99,,,0.00,weatherlink.com 1.10,2013-01-25 09:11:00,
2013-01-25 04:26:00,7.8,3.0,30.49,WSW,252,1.0,-999.0,82,-99.99,,,0.00,weatherlink.com 1.10,2013-01-25 09:26:00,
2013-01-25 04:41:00,7.6,3.0,30.47,WSW,248,0.0,-999.0,82,-99.99,,,0.00,weatherlink.com 1.10,2013-01-25 09:41:00,
2013-01-25 04:56:00,7.5,3.0,30.46,WSW,246,0.0,-999.0,83,-99.99,,,0.00,weatherlink.com 1.10,2013-01-25 09:56:00,
2013-01-25 05:11:00,7.4,3.0,30.45,SW,229,1.0,-999.0,83,-99.99,,,0.00,weatherlink.com 1.10,2013-01-25 10:11:00,
2013-01-25 05:26:00,7.4,3.0,30.45,West,263,2.0,-999.0,83,-99.99,,,0.00,weatherlink.com 1.10,2013-01-25 10:26:00,
2013-01-25 05:41:00,7.3,3.0,30.44,WSW,246,0.0,-999.0,83,-99.99,,,0.00,weatherlink.com 1.10,2013-01-25 10:41:00,
2013-01-25 05:56:00,7.3,4.0,30.44,WSW,246,2.0,-999.0,84,-99.99,,,0.00,weatherlink.com 1.10,2013-01-25 10:56:00,
2013-01-25 06:11:00,7.4,4.0,30.44,WSW,240,1.0,-999.0,84,-99.99,,,0.00,weatherlink.com 1.10,2013-01-25 11:11:00,
2013-01-25 06:26:00,7.4,4.0,30.44,WSW,240,1.0,-999.0,84,-99.99,,,0.00,weatherlink.com 1.10,2013-01-25 11:26:00,
2013-01-25 06:41:00,-999.0,-99.9,30.44,North,-999,-999.0,-999.0,-999,-99.99,,,0.00,weatherlink.com 1.10,2013-01-25 11:41:00,
2013-01-25 06:56:00,-999.0,-99.9,30.43,North,-999,-999.0,-999.0,-999,-99.99,,,0.00,weatherlink.com 1.10,2013-01-25 11:56:00,
2013-01-25 07:11:00,-999.0,-99.9,30.42,North,-999,-999.0,-999.0,-999,-99.99,,,0.00,weatherlink.com 1.10,2013-01-25 12:11:00,
2013-01-25 07:26:00,-999.0,-99.9,30.42,North,-999,-999.0,-999.0,-999,-99.99,,,0.00,weatherlink.com 1.10,2013-01-25 12:26:00,
2013-01-25 07:41:00,-999.0,-99.9,30.41,North,-999,-999.0,-999.0,-999,-99.99,,,0.00,weatherlink.com 1.10,2013-01-25 12:41:00,
2013-01-25 07:56:00,-999.0,-99.9,30.41,North,-999,-999.0,-999.0,-999,-99.99,,,0.00,weatherlink.com 1.10,2013-01-25 12:56:00,
2013-01-25 08:11:00,-999.0,-99.9,30.40,North,-999,-999.0,-999.0,-999,-99.99,,,0.00,weatherlink.com 1.10,2013-01-25 13:11:00,
2013-01-25 08:26:00,-999.0,-99.9,30.39,North,-999,-999.0,-999.0,-999,-99.99,,,0.00,weatherlink.com 1.10,2013-01-25 13:26:00,
2013-01-25 08:41:00,8.5,5.0,30.39,SSW,211,0.0,-999.0,84,-99.99,,,0.00,weatherlink.com 1.10,2013-01-25 13:41:00,
2013-01-25 08:56:00,9.2,5.0,30.39,SSW,211,0.0,-999.0,84,-99.99,,,0.00,weatherlink.com 1.10,2013-01-25 13:56:00,
2013-01-25 09:11:00,10.1,6.0,30.38,SSW,211,0.0,-999.0,82,-99.99,,,0.00,weatherlink.com 1.10,2013-01-25 14:11:00,
2013-01-25 09:26:00,11.3,6.0,30.38,SSW,211,1.0,-999.0,80,-99.99,,,0.00,weatherlink.com 1.10,2013-01-25 14:26:00,
2013-01-25 09:41:00,12.0,7.0,30.37,SSW,211,2.0,-999.0,79,-99.99,,,0.00,weatherlink.com 1.10,2013-01-25 14:41:00,
2013-01-25 09:56:00,12.2,6.0,30.36,SSW,210,3.0,-999.0,77,-99.99,,,0.00,weatherlink.com 1.10,2013-01-25 14:56:00,
2013-01-25 10:11:00,12.4,7.0,30.36,SSW,192,1.0,-999.0,77,-99.99,,,0.00,weatherlink.com 1.10,2013-01-25 15:11:00,
2013-01-25 10:26:00,12.5,7.0,30.35,SSW,192,2.0,-999.0,77,-99.99,,,0.00,weatherlink.com 1.10,2013-01-25 15:26:00,
2013-01-25 10:41:00,12.2,7.0,30.34,ESE,122,1.0,-999.0,78,-99.99,,,0.00,weatherlink.com 1.10,2013-01-25 15:41:00,
2013-01-25 10:56:00,12.1,7.0,30.33,ESE,122,1.0,-999.0,78,-99.99,,,0.00,weatherlink.com 1.10,2013-01-25 15:56:00,
2013-01-25 11:11:00,12.2,6.0,30.33,SE,138,4.0,-999.0,76,-99.99,,,0.00,weatherlink.com 1.10,2013-01-25 16:11:00,
2013-01-25 11:26:00,12.6,6.0,30.32,SSE,167,1.0,-999.0,76,-99.99,,,0.00,weatherlink.com 1.10,2013-01-25 16:26:00,
2013-01-25 11:40:00,13.1,6.0,30.30,South,178,0.0,-999.0,74,-99.99,,,0.00,weatherlink.com 1.10,2013-01-25 16:40:00,
2013-01-25 11:55:00,13.2,7.0,30.30,SE,126,2.0,-999.0,75,-99.99,,,0.00,weatherlink.com 1.10,2013-01-25 16:55:00,
2013-01-25 12:10:00,13.6,7.0,30.29,SSE,163,3.0,-999.0,74,-99.99,,,0.00,weatherlink.com 1.10,2013-01-25 17:10:00,
2013-01-25 12:25:00,13.5,6.0,30.27,SE,124,2.0,-999.0,73,-99.99,,,0.00,weatherlink.com 1.10,2013-01-25 17:25:00,
2013-01-25 12:40:00,13.8,7.0,30.26,SSE,159,5.0,-999.0,73,-99.99,,,0.00,weatherlink.com 1.10,2013-01-25 17:40:00,
2013-01-25 12:55:00,13.3,6.0,30.25,SE,136,3.0,-999.0,72,-99.99,,,0.00,weatherlink.com 1.10,2013-01-25 17:55:00,
2013-01-25 13:10:00,14.0,7.0,30.24,SE,146,2.0,-999.0,72,-99.99,,,0.00,weatherlink.com 1.10,2013-01-25 18:10:00,
2013-01-25 13:25:00,14.3,7.0,30.23,ESE,122,2.0,-999.0,71,-99.99,,,0.00,weatherlink.com 1.10,2013-01-25 18:25:00,
2013-01-25 13:40:00,14.1,6.0,30.22,SE,144,0.0,-999.0,69,-99.99,,,0.00,weatherlink.com 1.10,2013-01-25 18:40:00,
2013-01-25 13:55:00,14.4,6.0,30.21,SSE,147,1.0,-999.0,69,-99.99,,,0.00,weatherlink.com 1.10,2013-01-25 18:55:00,
2013-01-25 14:10:00,14.0,6.0,30.21,SE,142,2.0,-999.0,69,-99.99,,,0.00,weatherlink.com 1.10,2013-01-25 19:10:00,
2013-01-25 14:25:00,14.2,6.0,30.20,SE,146,0.0,-999.0,70,-99.99,,,0.00,weatherlink.com 1.10,2013-01-25 19:25:00,
2013-01-25 14:40:00,14.3,6.0,30.20,SSE,148,1.0,-999.0,70,-99.99,,,0.00,weatherlink.com 1.10,2013-01-25 19:40:00,
2013-01-25 14:55:00,14.1,6.0,30.19,East,91,0.0,-999.0,70,-99.99,,,0.00,weatherlink.com 1.10,2013-01-25 19:55:00,
2013-01-25 15:10:00,14.0,7.0,30.18,SE,146,2.0,-999.0,72,-99.99,,,0.00,weatherlink.com 1.10,2013-01-25 20:10:00,
2013-01-25 15:25:00,13.9,7.0,30.17,ESE,108,3.0,-999.0,73,-99.99,,,0.00,weatherlink.com 1.10,2013-01-25 20:25:00,
2013-01-25 15:40:00,13.8,7.0,30.16,SE,141,0.0,-999.0,75,-99.99,,,0.00,weatherlink.com 1.10,2013-01-25 20:40:00,
2013-01-25 15:55:00,13.5,8.0,30.16,SE,133,2.0,-999.0,78,-99.99,,,0.00,weatherlink.com 1.10,2013-01-25 20:55:00,
2013-01-25 16:10:00,13.4,9.0,30.15,SSE,147,0.0,-999.0,81,-99.99,,,0.00,weatherlink.com 1.10,2013-01-25 21:10:00,
2013-01-25 16:25:00,13.4,9.0,30.15,SSE,147,0.0,-999.0,82,-99.99,,,0.00,weatherlink.com 1.10,2013-01-25 21:25:00,
2013-01-25 16:40:00,13.4,9.0,30.15,SE,135,1.0,-999.0,83,-99.99,,,0.00,weatherlink.com 1.10,2013-01-25 21:40:00,
2013-01-25 16:55:00,13.3,9.0,30.14,SE,128,0.0,-999.0,84,-99.99,,,0.00,weatherlink.com 1.10,2013-01-25 21:55:00,
2013-01-25 17:10:00,13.2,10.0,30.14,SE,128,0.0,-999.0,85,-99.99,,,0.00,weatherlink.com 1.10,2013-01-25 22:10:00,
2013-01-25 17:25:00,13.3,10.0,30.14,SE,128,0.0,-999.0,85,-99.99,,,0.00,weatherlink.com 1.10,2013-01-25 22:25:00,
2013-01-25 17:40:00,13.2,10.0,30.14,SE,128,0.0,-999.0,86,-99.99,,,0.00,weatherlink.com 1.10,2013-01-25 22:40:00,
2013-01-25 18:10:00,13.1,10.0,30.13,SE,128,0.0,-999.0,87,-99.99,,,0.00,weatherlink.com 1.10,2013-01-25 23:10:00,
2013-01-25 18:25:00,13.3,10.0,30.13,SE,128,0.0,-999.0,87,-99.99,,,0.00,weatherlink.com 1.10,2013-01-25 23:25:00,
2013-01-25 18:40:00,13.3,10.0,30.13,SE,128,0.0,-999.0,87,-99.99,,,0.00,weatherlink.com 1.10,2013-01-25 23:40:00,
2013-01-25 18:55:00,13.2,10.0,30.13,SE,128,0.0,-999.0,87,-99.99,,,0.00,weatherlink.com 1.10,2013-01-25 23:55:00,
2013-01-25 19:11:00,13.2,10.0,30.13,SE,128,0.0,-999.0,87,-99.99,,,0.00,weatherlink.com 1.10,2013-01-26 00:11:00,
2013-01-25 19:26:00,13.3,10.0,30.13,SE,128,0.0,-999.0,87,-99.99,,,0.00,weatherlink.com 1.10,2013-01-26 00:26:00,
2013-01-25 19:41:00,13.2,10.0,30.12,SE,128,0.0,-999.0,87,-99.99,,,0.00,weatherlink.com 1.10,2013-01-26 00:41:00,
2013-01-25 19:56:00,13.1,10.0,30.12,SE,128,0.0,-999.0,88,-99.99,,,0.00,weatherlink.com 1.10,2013-01-26 00:56:00,
2013-01-25 20:11:00,13.0,10.0,30.12,SE,128,0.0,-999.0,88,-99.99,,,0.00,weatherlink.com 1.10,2013-01-26 01:11:00,
2013-01-25 20:26:00,13.0,10.0,30.12,SE,128,0.0,-999.0,88,-99.99,,,0.01,weatherlink.com 1.10,2013-01-26 01:26:00,
2013-01-25 20:41:00,13.0,10.0,30.12,SE,128,0.0,-999.0,88,-99.99,,,0.01,weatherlink.com 1.10,2013-01-26 01:41:00,
2013-01-25 20:56:00,12.8,10.0,30.12,SE,128,0.0,-999.0,88,-99.99,,,0.01,weatherlink.com 1.10,2013-01-26 01:56:00,
2013-01-25 21:11:00,12.7,10.0,30.12,SE,128,0.0,-999.0,88,-99.99,,,0.01,weatherlink.com 1.10,2013-01-26 02:11:00,
2013-01-25 21:26:00,12.2,9.0,30.11,SE,128,0.0,-999.0,88,-99.99,,,0.01,weatherlink.com 1.10,2013-01-26 02:26:00,
2013-01-25 21:40:00,12.1,9.0,30.11,SE,128,0.0,-999.0,88,-99.99,,,0.01,weatherlink.com 1.10,2013-01-26 02:40:00,
2013-01-25 21:56:00,11.7,9.0,30.12,SE,128,0.0,-999.0,88,-99.99,,,0.01,weatherlink.com 1.10,2013-01-26 02:56:00,
2013-01-25 22:11:00,11.2,8.0,30.12,SE,128,0.0,-999.0,88,-99.99,,,0.01,weatherlink.com 1.10,2013-01-26 03:11:00,
2013-01-25 22:26:00,10.8,8.0,30.12,SE,128,0.0,-999.0,88,-99.99,,,0.01,weatherlink.com 1.10,2013-01-26 03:26:00,
2013-01-25 22:41:00,10.4,8.0,30.12,SE,128,0.0,-999.0,88,-99.99,,,0.01,weatherlink.com 1.10,2013-01-26 03:41:00,
2013-01-25 22:56:00,9.9,7.0,30.12,SE,128,0.0,-999.0,87,-99.99,,,0.01,weatherlink.com 1.10,2013-01-26 03:56:00,
2013-01-25 23:11:00,9.6,7.0,30.12,SE,128,0.0,-999.0,87,-99.99,,,0.01,weatherlink.com 1.10,2013-01-26 04:11:00,
2013-01-25 23:26:00,8.7,6.0,30.12,SE,128,0.0,-999.0,87,-99.99,,,0.01,weatherlink.com 1.10,2013-01-26 04:26:00,
2013-01-25 23:41:00,8.1,5.0,30.12,SE,128,0.0,-999.0,87,-99.99,,,0.01,weatherlink.com 1.10,2013-01-26 04:41:00,
2013-01-25 23:56:00,7.7,5.0,30.13,SE,128,0.0,-999.0,87,-99.99,,,0.01,weatherlink.com 1.10,2013-01-26 04:56:00,